Regional Weather Roundup
Issued by NWS

Home | Current Version | Previous Version | Text Only | Print | Product List | Glossary On
Versions: 1 2 3 4 5 6 7 8 9 10 11 12 13 14 15 16 17 18 19 20 21 22 23 24 25 26 27 28 29 30 31 32 33 34 35 36 37 38 39 40 41 42 43 44 45 46 47 48 49 50
000
ASUS44 KJAN 270310
RWRMS

MISSISSIPPI HOURLY WEATHER ROUNDUP
NATIONAL WEATHER SERVICE JACKSON MS
1000 PM CDT THU MAR 26 2015

NOTE: "FAIR: INDICATES FEW OR NO CLOUDS BELOW 12,000 FEET WITH NO
SIGNIFICANT WEATHER AND/OR OBSTRUCTIONS TO VISIBILITY.

MSZ001>002-007>008-010>013-018>021-025>028-034>036-270400-
NORTHWEST MISSISSIPPI

CITY           SKY/WX    TMP DP  RH WIND       PRES   REMARKS
CLARKSDALE     FAIR      46  41  81 N10       30.08R
CLEVELAND      MOCLDY    48  45  88 N12       30.05S
GREENWOOD      CLOUDY    48  42  80 N12G24    30.03R
GREENVILLE     CLOUDY    49  43  80 N13       30.05R
OLIVE BRANCH   CLEAR     39  39 100 N12G17    30.06R WCI  32
OXFORD         CLOUDY    43  41  93 N7G18     30.04S
TUNICA         CLEAR     43  39  87 N10       30.08R
$$

MSZ003>006-009-014>017-022>024-029>033-037>039-270400-
NORTHEAST MISSISSIPPI

CITY           SKY/WX    TMP DP  RH WIND       PRES   REMARKS
COLUMBUS AFB   LGT RAIN  48  45  87 N13       29.95S
CORINTH        CLOUDY    46  41  81 N7G15     30.00S
GOLDN TRIANGLE CLOUDY    48  43  81 N13G22    29.96R
STARKVILLE     CLOUDY    46  45  93 N7        29.97R
TUPELO         CLOUDY    46  42  86 N9        30.00R
$$

MSZ040-058-270400-
CENTRAL MISSISSIPPI

CITY           SKY/WX    TMP DP  RH WIND       PRES   REMARKS
JACKSON INTL   CLOUDY    53  48  83 NW13      29.98R
JACKSON HAWKNS CLOUDY    51  47  86 NW7       29.98R
MERIDIAN KEY   CLOUDY    55  49  80 N14       29.92R
MERIDIAN NAS   CLOUDY    54  52  94 N15       29.91R
RAYMOND        CLOUDY    52  46  82 NW7       29.99R
VICKSBURG      LGT RAIN  52  46  80 N18       30.04R
$$

MSZ059>079-270400-
SOUTH MISSISSIPPI

CITY           SKY/WX    TMP DP  RH WIND       PRES   REMARKS
BROOKHAVEN       N/A     52  52 100 NW7       29.98R
HATTIESBURG    CLOUDY    62  60  93 NW17G24   29.89R
MCCOMB         CLOUDY    55  50  83 N17       29.95R
NATCHEZ        CLOUDY    54  46  76 N13G22    30.02R
PINE BELT      CLOUDY    57  54  88 N14G21    29.90R
$$

MSZ080>082-270400-
COASTAL MISSISSIPPI

CITY           SKY/WX    TMP DP  RH WIND       PRES   REMARKS
BILOXI         NOT AVBL
PASCAGOULA     CLOUDY    65  63  93 W3        29.86R
GULFPORT       MOCLDY    63  60  90 W5        29.86S
$$



USA.gov is the U.S. government's official web portal to all federal, state and local government web resources and services.